Location: Bethera
(33.2010°N, 79.7880°W)
Time: 08:47:48
(UTC-05:00)

Amateur Radio Satellites - All Passes

Search period start: 26 November 2014 08:17
Search period end: 27 November 2014 08:17
Location: Bethera, 33.2010°N, 79.7880°W

Satellite Date Start Highest point End Downlink Frequencies (MHz)
Time Altitude Azimuth
COMPASS 1 26 Nov 08:19:09 08:20:01 11° 92° (E) 08:20:52 437.405
HO-68 26 Nov 08:30:00 08:36:21 34° 98° (E) 08:42:39 435.675
GOMX 1 26 Nov 08:43:13 08:46:22 20° 96° (E) 08:49:34 467.674
CUTE 1.7 & AOD 2 26 Nov 08:47:22 08:51:19 35° 98° (E) 08:55:16 437.475
GONETS M04 26 Nov 08:48:04 08:56:50 75° 277° (W) 09:05:42
ANTELSAT 26 Nov 09:11:56 09:13:55 13° 67° (ENE) 09:15:54 437.575/2403.000
BRITE-PL 26 Nov 09:12:05 09:16:13 69° 101° (E) 09:20:28 437.365/2234.400
UKube-1 26 Nov 09:14:43 09:17:45 19° 96° (E) 09:20:46 .
SEEDS 26 Nov 09:19:51 09:24:09 79° 102° (ESE) 09:28:25 437.485
Oscar 11 26 Nov 09:25:08 09:28:58 30° 97° (E) 09:32:47 145.826/435.025
POLYITAN 1 26 Nov 09:26:44 09:28:48 13° 67° (ENE) 09:30:51 437.675
QB50P2 26 Nov 09:28:28 09:30:42 14° 68° (ENE) 09:32:56 145.880/145.840
DUCHIFAT 1 26 Nov 09:33:55 09:36:32 16° 68° (ENE) 09:39:09 145.980
AAUSAT CUBESAT 2 26 Nov 09:36:15 09:40:30 89° 282° (WNW) 09:44:44 437.432
DOVE 4 26 Nov 09:37:07 09:41:18 70° 101° (E) 09:45:39 437.250
DELFI C3 26 Nov 09:40:31 09:44:24 38° 99° (E) 09:48:15 145.870
UWE-3 26 Nov 09:44:08 09:47:39 24° 97° (E) 09:51:12 435.000/436.395/437.385
CUBEBUG 2 26 Nov 09:44:13 09:47:56 29° 98° (E) 09:51:44 437.445
CANX-2 26 Nov 09:48:35 09:52:29 35° 287° (WNW) 09:56:24 2200.000
DX 1 26 Nov 09:49:31 09:53:45 51° 101° (E) 09:57:57 434.975-435.025
COMPASS 1 26 Nov 09:51:52 09:55:58 49° 285° (WNW) 10:00:03 437.405
NANOSAT C BR1 26 Nov 09:52:18 09:55:52 27° 71° (ENE) 09:59:26 145.865
HUMSAT D 26 Nov 10:00:28 10:03:22 18° 95° (E) 10:06:16 437.325/437.525
QB50P1 26 Nov 10:01:53 10:05:45 35° 73° (ENE) 10:09:37 145.935-145.965
TIGRISAT 26 Nov 10:03:31 10:07:41 54° 75° (ENE) 10:11:49 435.000
BUGSAT 1 26 Nov 10:11:01 10:14:56 37° 73° (ENE) 10:18:50 437.445
CINEMA 3 26 Nov 10:11:09 10:15:24 77° 283° (WNW) 10:19:48 145.822/145.860
UNISAT 6 26 Nov 10:17:12 10:21:29 83° 77° (ENE) 10:25:45 437.425
HO-68 26 Nov 10:17:28 10:23:59 39° 293° (WNW) 10:30:28 435.675
ZACube-1 26 Nov 10:18:06 10:22:17 54° 100° (E) 10:26:32 437.345
VELOX 1 26 Nov 10:20:42 10:24:41 33° 98° (E) 10:28:39 145.980
GOMX 1 26 Nov 10:21:03 10:24:26 24° 288° (WNW) 10:27:54 467.674
ESTCUBE 1 26 Nov 10:22:22 10:23:59 12° 93° (E) 10:25:35 437.505/2401.250
CUTE 1.7 & AOD 2 26 Nov 10:24:21 10:26:55 16° 291° (WNW) 10:29:29 437.475
POPSAT HIP 1 26 Nov 10:26:18 10:30:33 72° 76° (ENE) 10:34:47 437.405
ANTELSAT 26 Nov 10:46:17 10:50:20 42° 261° (W) 10:54:23 437.575/2403.000
AISAT 26 Nov 10:46:48 10:51:13 72° 102° (ESE) 10:55:36 437.250
UKube-1 26 Nov 10:50:08 10:53:54 29° 289° (WNW) 10:57:39 .
GONETS M04 26 Nov 10:52:45 10:55:09 11° 296° (WNW) 10:57:33
FUNcube-1 26 Nov 10:53:06 10:57:16 55° 285° (WNW) 11:01:30 145.935
CUBEBUG 1 26 Nov 10:59:00 11:02:52 30° 98° (E) 11:06:41 437.445
POLYITAN 1 26 Nov 11:00:19 11:04:21 41° 261° (W) 11:08:24 437.675
Oscar 11 26 Nov 11:01:51 11:04:53 19° 291° (WNW) 11:07:56 145.826/435.025
QB50P2 26 Nov 11:02:15 11:06:15 39° 261° (W) 11:10:15 145.880/145.840
DUCHIFAT 1 26 Nov 11:08:14 11:12:06 34° 262° (W) 11:15:59 145.980
DELFI C3 26 Nov 11:17:15 11:19:20 14° 292° (WNW) 11:21:24 145.870
UWE-3 26 Nov 11:20:45 11:24:03 22° 289° (WNW) 11:27:24 435.000/436.395/437.385
CUBEBUG 2 26 Nov 11:21:25 11:24:27 19° 290° (WNW) 11:27:31 437.445
50 SAT 26 Nov 11:21:52 11:25:48 49° 285° (WNW) 11:29:44 437.505
DX 1 26 Nov 11:28:04 11:29:30 12° 294° (WNW) 11:30:56 434.975-435.025
NANOSAT C BR1 26 Nov 11:28:34 11:31:42 20° 264° (W) 11:34:49 145.865
HUMSAT D 26 Nov 11:35:34 11:39:09 28° 288° (WNW) 11:42:46 437.325/437.525
QB50P1 26 Nov 11:39:15 11:41:43 15° 266° (W) 11:44:11 145.935-145.965
BUGSAT 1 26 Nov 11:48:11 11:50:30 14° 266° (W) 11:52:50 437.445
ESTCUBE 1 26 Nov 11:56:42 12:01:05 50° 286° (WNW) 12:05:26 437.505/2401.250
ZACube-1 26 Nov 11:57:22 11:58:11 11° 293° (WNW) 11:59:00 437.345
VELOX 1 26 Nov 11:58:03 12:00:59 18° 292° (WNW) 12:03:56 145.980
TISAT 1 26 Nov 12:10:26 12:14:31 50° 100° (E) 12:18:35 437.305
SPROUT 26 Nov 12:21:17 12:25:31 60° 101° (E) 12:29:43 437.525
DANDE 26 Nov 12:24:36 12:26:07 13° 95° (E) 12:27:33 436.750
VERMONT LUNAR 26 Nov 12:35:07 12:37:13 15° 141° (SE) 12:39:20 437.305
CUBEBUG 1 26 Nov 12:36:00 12:38:59 18° 291° (WNW) 12:41:57 437.445
SO-50 26 Nov 12:50:52 12:55:44 64° 60° (ENE) 13:00:35 436.795
Oscar 19 26 Nov 12:52:18 12:57:17 58° 74° (ENE) 13:02:19 437.125/150
ITUPSAT 1 26 Nov 13:07:55 13:12:03 28° 97° (E) 13:16:09 437.325
YUBILEINY 26 Nov 13:13:49 13:21:53 41° 77° (ENE) 13:29:52 435.215
SWISSCUBE 26 Nov 13:18:23 13:22:55 41° 99° (E) 13:27:25 437.505
CUSAT 1 26 Nov 13:39:32 13:41:31 18° 281° (W) 13:43:24 437.405
AUBIESAT-1 26 Nov 13:42:49 13:47:45 85° 107° (ESE) 13:52:28 437.475
ITAMSAT 1 26 Nov 13:46:04 13:51:16 76° 75° (ENE) 13:56:29 435.822/435.867
M-CUBED/EXP-1 PRIME 26 Nov 13:48:21 13:53:18 77° 288° (WNW) 13:58:03 437.505
TISAT 1 26 Nov 13:48:48 13:49:52 11° 294° (WNW) 13:50:57 437.305
BEESAT 26 Nov 13:49:09 13:53:58 86° 103° (ESE) 13:58:44 436.000
PHONESAT 2.4 26 Nov 14:02:25 14:06:02 53° 149° (SSE) 14:09:40 2401.200-2431.200
RS-15 26 Nov 14:05:35 14:11:56 17° 100° (E) 14:18:12 29.354- 29.394
KKS-1 26 Nov 14:09:14 14:12:54 25° 97° (E) 14:16:33 437.445
VERMONT LUNAR 26 Nov 14:11:44 14:15:20 88° 333° (NNW) 14:18:59 437.305
HORYU 2 26 Nov 14:20:25 14:24:25 35° 72° (ENE) 14:28:26 437.375
Gurwin Techsat 1B 26 Nov 14:20:47 14:26:06 90° 256° (WSW) 14:31:26 435.225
MaSat-1 26 Nov 14:27:46 14:30:35 31° 110° (ESE) 14:33:10 437.345
SO-50 26 Nov 14:33:55 14:35:43 12° 253° (WSW) 14:37:31 436.795
Oscar 19 26 Nov 14:34:47 14:36:56 13° 268° (W) 14:39:06 437.125/150
ITUPSAT 1 26 Nov 14:45:57 14:49:46 24° 291° (WNW) 14:53:34 437.325
JAS-2 26 Nov 14:54:12 14:54:53 10° 56° (NE) 14:55:33 435.910
SWISSCUBE 26 Nov 14:57:22 15:00:24 17° 293° (WNW) 15:03:25 437.505
STARS 26 Nov 15:03:25 15:07:49 75° 102° (ESE) 15:12:12 437.465
YUBILEINY 26 Nov 15:10:48 15:18:27 36° 273° (W) 15:26:05 435.215
AO-7 26 Nov 15:17:06 15:25:09 59° 68° (ENE) 15:33:16 29.400- 29.500
PHONESAT 2.4 26 Nov 15:41:27 15:44:55 37° 345° (NNW) 15:48:24 2401.200-2431.200
O/OREOS (USA 219) 26 Nov 15:42:15 15:46:26 39° 67° (ENE) 15:50:38 437.305
KKS-1 26 Nov 15:45:54 15:49:24 23° 290° (WNW) 15:52:53 437.445
VERMONT LUNAR 26 Nov 15:50:54 15:54:06 29° 350° (N) 15:57:19 437.305
HORYU 2 26 Nov 15:58:22 16:01:09 16° 265° (W) 16:03:57 437.375
RS-15 26 Nov 16:11:41 16:22:43 89° 297° (WNW) 16:33:42 29.354- 29.394
JAS-2 26 Nov 16:30:54 16:38:17 62° 72° (ENE) 16:46:02 435.910
Cubesat XI-IV 26 Nov 16:32:37 16:34:58 13° 64° (ENE) 16:37:20 437.490
MOZHAYETS 4 26 Nov 16:53:35 16:58:01 43° 99° (E) 17:02:26
CUTE-I 26 Nov 17:11:10 17:15:50 31° 70° (ENE) 17:20:30 437.470
AO-7 26 Nov 17:11:44 17:18:14 26° 263° (W) 17:24:49 29.400- 29.500
PHONESAT 2.4 26 Nov 17:21:08 17:24:18 25° 2° (N) 17:27:27 2401.200-2431.200
O/OREOS (USA 219) 26 Nov 17:23:00 17:25:26 15° 261° (W) 17:27:53 437.305
VERMONT LUNAR 26 Nov 17:30:04 17:33:12 26° 7° (N) 17:36:20 437.305
PRISM 26 Nov 17:53:01 17:56:48 31° 98° (E) 18:00:32 437.425
Cubesat XI-IV 26 Nov 18:09:05 18:14:25 68° 258° (WSW) 18:19:46 437.490
JAS-2 26 Nov 18:17:53 18:23:38 24° 268° (W) 18:29:38 435.910
RS-15 26 Nov 18:28:21 18:36:38 24° 320° (NW) 18:45:01 29.354- 29.394
MOZHAYETS 4 26 Nov 18:32:09 18:34:50 15° 293° (WNW) 18:37:31
CUBESAT XI-V 26 Nov 18:36:51 18:41:10 37° 98° (E) 18:45:27 437.345
BEESAT 3 26 Nov 18:45:17 18:47:16 13° 108° (ESE) 18:49:15 437.485
PCSat 26 Nov 18:50:08 18:55:06 38° 109° (ESE) 19:00:05 145.827
CUTE-I 26 Nov 18:51:22 18:55:49 27° 263° (W) 19:00:18 437.470
AIST 1 26 Nov 18:54:04 18:57:19 20° 88° (E) 19:00:34
HO-68 26 Nov 18:56:20 19:00:33 17° 59° (ENE) 19:04:46 435.675
PHONESAT 2.4 26 Nov 19:00:01 19:03:36 45° 19° (NNE) 19:07:11 2401.200-2431.200
BEESAT 2 26 Nov 19:00:20 19:03:11 18° 109° (ESE) 19:06:03 435.950
GONETS M04 26 Nov 19:03:57 19:12:21 46° 78° (ENE) 19:20:37
VERMONT LUNAR 26 Nov 19:08:27 19:12:04 67° 23° (NNE) 19:15:40 437.305
STRAND 1 26 Nov 19:23:04 19:28:10 75° 285° (WNW) 19:33:14 437.568
PRISM 26 Nov 19:29:18 19:32:04 17° 292° (WNW) 19:34:49 437.425
AIST 2 26 Nov 19:37:22 19:40:42 23° 110° (ESE) 19:44:05 435.215
CUTE 1.7 & AOD 2 26 Nov 19:37:51 19:40:22 16° 69° (ENE) 19:42:54 437.475
GOMX 1 26 Nov 19:48:12 19:51:11 17° 70° (ENE) 19:54:03 467.674
SEEDS 26 Nov 20:08:36 20:12:18 31° 73° (ENE) 20:16:01 437.485
UKube-1 26 Nov 20:09:01 20:09:15 10° 65° (ENE) 20:09:29 .
CUBESAT XI-V 26 Nov 20:15:15 20:18:16 17° 292° (WNW) 20:21:17 437.345
Oscar 11 26 Nov 20:17:27 20:19:49 15° 68° (ENE) 20:22:11 145.826/435.025
BRITE-PL 26 Nov 20:18:27 20:23:24 53° 75° (ENE) 20:27:59 437.365/2234.400
BEESAT 3 26 Nov 20:21:13 20:25:04 40° 302° (WNW) 20:29:00 437.485
AAUSAT CUBESAT 2 26 Nov 20:23:50 20:27:35 35° 73° (ENE) 20:31:23 437.432
DELFI C3 26 Nov 20:26:54 20:29:10 15° 68° (ENE) 20:31:26 145.870
AIST 1 26 Nov 20:31:08 20:34:46 25° 282° (WNW) 20:38:27
PCSat 26 Nov 20:34:12 20:38:34 24° 305° (NW) 20:42:57 145.827
CANX-2 26 Nov 20:37:09 20:41:21 85° 258° (WSW) 20:45:36 2200.000
BEESAT 2 26 Nov 20:37:34 20:41:13 30° 304° (NW) 20:44:55 435.950
PHONESAT 2.4 26 Nov 20:38:55 20:42:22 37° 213° (SSW) 20:45:48 2401.200-2431.200
DOVE 4 26 Nov 20:38:56 20:43:21 44° 75° (ENE) 20:47:33 437.250
COMPASS 1 26 Nov 20:39:16 20:43:23 64° 76° (ENE) 20:47:31 437.405
UWE-3 26 Nov 20:39:39 20:41:23 12° 68° (ENE) 20:43:06 435.000/436.395/437.385
HO-68 26 Nov 20:40:11 20:47:22 80° 255° (WSW) 20:54:36 435.675
CUBEBUG 2 26 Nov 20:40:17 20:42:43 15° 69° (ENE) 20:45:08 437.445
DX 1 26 Nov 20:41:36 20:45:16 27° 71° (ENE) 20:48:56 434.975-435.025
VERMONT LUNAR 26 Nov 20:47:31 20:50:18 21° 217° (SW) 20:53:05 437.305
GONETS M04 26 Nov 21:01:18 21:08:46 33° 275° (W) 21:16:12
CINEMA 3 26 Nov 21:09:06 21:13:27 58° 76° (ENE) 21:17:39 145.822/145.860
ZACube-1 26 Nov 21:11:04 21:14:31 25° 72° (ENE) 21:17:56 437.345
CUTE 1.7 & AOD 2 26 Nov 21:12:11 21:15:59 34° 262° (W) 21:19:50 437.475
VELOX 1 26 Nov 21:15:29 21:18:37 19° 69° (ENE) 21:21:46 145.980
AIST 2 26 Nov 21:15:39 21:19:12 26° 305° (NW) 21:22:48 435.215
GOMX 1 26 Nov 21:24:29 21:29:02 39° 261° (W) 21:33:20 467.674
UKube-1 26 Nov 21:40:34 21:44:51 59° 259° (W) 21:49:10 .
AISAT 26 Nov 21:41:06 21:45:15 38° 73° (ENE) 21:49:24 437.250
FUNcube-1 26 Nov 21:45:03 21:49:15 67° 76° (ENE) 21:53:23 145.935
SEEDS 26 Nov 21:45:33 21:48:10 16° 266° (W) 21:50:47 437.485
Oscar 11 26 Nov 21:51:37 21:55:37 38° 261° (W) 21:59:39 145.826/435.025
CUBEBUG 1 26 Nov 21:52:24 21:55:14 17° 68° (ENE) 21:58:03 437.445
BRITE-PL 26 Nov 21:59:42 22:02:01 13° 266° (W) 22:04:17 437.365/2234.400
DELFI C3 26 Nov 22:00:28 22:04:09 33° 262° (W) 22:07:52 145.870
TIGRISAT 26 Nov 22:00:33 22:03:24 16° 95° (E) 22:06:15 435.000
AAUSAT CUBESAT 2 26 Nov 22:01:07 22:03:21 14° 266° (W) 22:05:36 437.432
50 SAT 26 Nov 22:06:33 22:10:30 57° 76° (ENE) 22:14:27 437.505
UWE-3 26 Nov 22:13:29 22:17:33 43° 261° (W) 22:21:33 435.000/436.395/437.385
UNISAT 6 26 Nov 22:13:58 22:17:38 24° 97° (E) 22:21:21 437.425
CUBEBUG 2 26 Nov 22:15:12 22:19:08 35° 262° (W) 22:23:00 437.445
POPSAT HIP 1 26 Nov 22:17:32 22:20:09 16° 95° (E) 22:22:46 437.405
DX 1 26 Nov 22:18:06 22:21:26 21° 264° (W) 22:24:47 434.975-435.025
DOVE 4 26 Nov 22:19:00 22:21:13 13° 266° (W) 22:23:24 437.250
HUMSAT D 26 Nov 22:23:17 22:27:24 69° 259° (W) 22:31:31 437.325/437.525
CUSAT 1 26 Nov 22:38:38 22:40:36 12° 76° (ENE) 22:42:44 437.405
ISS 26 Nov 22:40:43 22:44:00 86° 135° (SE) 22:47:17 145.825
ANTELSAT 26 Nov 22:42:14 22:46:37 53° 100° (E) 22:51:06 437.575/2403.000
ZACube-1 26 Nov 22:47:41 22:50:50 20° 264° (W) 22:53:57 437.345
POLYITAN 1 26 Nov 22:50:26 22:54:27 42° 99° (E) 22:58:28 437.675
VELOX 1 26 Nov 22:50:58 22:54:57 32° 262° (W) 22:58:57 145.980
ESTCUBE 1 26 Nov 22:51:59 22:56:31 89° 76° (ENE) 23:01:06 437.505/2401.250
QB50P2 26 Nov 22:52:05 22:56:08 44° 99° (E) 23:00:10 145.880/145.840
JUGNU 26 Nov 22:55:04 22:58:40 17° 168° (SSE) 23:02:18 437.505
DUCHIFAT 1 26 Nov 22:57:30 23:01:36 51° 100° (E) 23:05:41 145.980
TISAT 1 26 Nov 22:59:44 23:03:05 23° 70° (ENE) 23:06:25 437.305
DANDE 26 Nov 23:06:35 23:10:12 19° 79° (E) 23:14:31 436.750
RS-15 26 Nov 23:07:06 23:14:40 20° 35° (NE) 23:22:22 29.354- 29.394
SRMSAT 26 Nov 23:09:44 23:10:57 11° 162° (SSE) 23:12:10 437.500
SPROUT 26 Nov 23:11:58 23:15:37 27° 72° (ENE) 23:19:16 437.525
NANOSAT C BR1 26 Nov 23:16:59 23:21:13 88° 283° (WNW) 23:25:25 145.865
AISAT 26 Nov 23:19:21 23:21:59 15° 266° (W) 23:24:37 437.250
QB50P1 26 Nov 23:27:03 23:31:14 65° 284° (WNW) 23:35:24 145.935-145.965
CUBEBUG 1 26 Nov 23:27:12 23:31:17 36° 262° (W) 23:35:23 437.445
BUGSAT 1 26 Nov 23:33:06 23:37:08 67° 284° (WNW) 23:41:08 437.445
TIGRISAT 26 Nov 23:36:07 23:40:11 36° 287° (WNW) 23:44:20 435.000
UNISAT 6 26 Nov 23:50:40 23:54:19 25° 289° (WNW) 23:58:01 437.425
POPSAT HIP 1 26 Nov 23:52:21 23:56:06 32° 288° (WNW) 23:59:50 437.405
MaSat-1 27 Nov 00:10:49 00:11:52 12° 62° (ENE) 00:12:57 437.345
ITUPSAT 1 27 Nov 00:11:22 00:14:59 22° 68° (ENE) 00:18:36 437.325
CUSAT 1 27 Nov 00:18:28 00:23:35 73° 263° (W) 00:30:27 437.405
ISS 27 Nov 00:19:58 00:21:02 11° 331° (NNW) 00:22:07 145.825
ANTELSAT 27 Nov 00:21:13 00:22:58 12° 293° (WNW) 00:24:43 437.575/2403.000
SWISSCUBE 27 Nov 00:21:18 00:25:28 30° 71° (ENE) 00:29:39 437.505
POLYITAN 1 27 Nov 00:28:04 00:30:00 13° 293° (WNW) 00:31:56 437.675
AUBIESAT-1 27 Nov 00:28:29 00:32:22 55° 70° (ENE) 00:36:38 437.475
QB50P2 27 Nov 00:29:53 00:31:38 12° 293° (WNW) 00:33:22 145.880/145.840
M-CUBED/EXP-1 PRIME 27 Nov 00:34:20 00:38:16 73° 71° (ENE) 00:42:37 437.505
TISAT 1 27 Nov 00:35:21 00:38:47 24° 264° (W) 00:42:13 437.305
DUCHIFAT 1 27 Nov 00:36:00 00:36:59 11° 294° (WNW) 00:37:58 145.980
JUGNU 27 Nov 00:42:37 00:47:03 22° 178° (S) 00:51:30 437.505
SPROUT 27 Nov 00:48:29 00:51:39 20° 265° (W) 00:54:50 437.525
DANDE 27 Nov 00:48:44 00:53:30 44° 264° (W) 00:59:48 436.750
BEESAT 27 Nov 00:51:32 00:56:14 60° 75° (ENE) 01:00:58 436.000
SRMSAT 27 Nov 00:55:19 00:59:27 19° 171° (S) 01:03:35 437.500
KKS-1 27 Nov 01:04:54 01:07:21 15° 67° (ENE) 01:09:49 437.445
Oscar 19 27 Nov 01:08:33 01:13:01 29° 97° (E) 01:17:29 437.125/150
RS-15 27 Nov 01:18:05 01:29:24 71° 60° (ENE) 01:41:11 29.354- 29.394
ITUPSAT 1 27 Nov 01:48:20 01:52:38 32° 262° (W) 01:56:57 437.325
STARS 27 Nov 01:56:44 02:00:49 38° 73° (ENE) 02:04:53 437.465
SWISSCUBE 27 Nov 01:59:33 02:03:17 22° 264° (W) 02:07:02 437.505
ITAMSAT 1 27 Nov 02:03:36 02:08:24 38° 99° (E) 02:13:09 435.822/435.867
YUBILEINY 27 Nov 02:08:51 02:17:19 54° 90° (E) 02:25:46 435.215
JUGNU 27 Nov 02:31:24 02:35:27 19° 189° (S) 02:39:31 437.505
BEESAT 27 Nov 02:33:16 02:34:23 11° 268° (W) 02:35:31 436.000
KKS-1 27 Nov 02:39:25 02:43:37 41° 261° (W) 02:47:50 437.445
Gurwin Techsat 1B 27 Nov 02:41:28 02:46:39 52° 100° (E) 02:51:47 435.225
SRMSAT 27 Nov 02:43:30 02:48:01 22° 182° (S) 02:52:32 437.500
Oscar 19 27 Nov 02:47:55 02:52:12 27° 291° (WNW) 02:56:29 437.125/150
SO-50 27 Nov 03:01:43 03:06:03 54° 115° (ESE) 03:10:32 436.795
AO-7 27 Nov 03:24:31 03:31:00 24° 96° (E) 03:37:26 29.400- 29.500
RS-15 27 Nov 03:31:57 03:40:49 27° 256° (WSW) 03:50:02 29.354- 29.394
STARS 27 Nov 03:34:54 03:37:23 15° 266° (W) 03:39:53 437.465
PCSat 27 Nov 03:43:36 03:46:29 14° 50° (NE) 03:49:21 145.827
ITAMSAT 1 27 Nov 03:43:46 03:47:35 21° 293° (WNW) 03:51:23 435.822/435.867
MOZHAYETS 4 27 Nov 03:52:03 03:55:48 25° 70° (ENE) 03:59:34
HORYU 2 27 Nov 03:52:20 03:56:46 61° 285° (WNW) 04:01:12 437.375
YUBILEINY 27 Nov 04:07:12 04:14:24 28° 287° (WNW) 04:21:38 435.215
Gurwin Techsat 1B 27 Nov 04:22:54 04:26:07 17° 294° (WNW) 04:29:21 435.225
JUGNU 27 Nov 04:23:00 04:23:48 10° 198° (SSW) 04:24:37 437.505
SRMSAT 27 Nov 04:32:53 04:36:34 17° 192° (SSW) 04:40:16 437.500
PRISM 27 Nov 04:41:22 04:43:39 15° 67° (ENE) 04:45:58 437.425
SO-50 27 Nov 04:44:21 04:46:56 15° 312° (NW) 04:49:34 436.795
BEESAT 3 27 Nov 04:45:07 04:48:54 32° 56° (ENE) 04:52:38 437.485
BEESAT 2 27 Nov 05:01:20 05:05:22 44° 58° (ENE) 05:09:20 435.950
ISS 27 Nov 05:13:20 05:15:28 16° 32° (NNE) 05:17:37 145.825
AO-7 27 Nov 05:15:56 05:24:07 62° 291° (WNW) 05:32:18 29.400- 29.500
PCSat 27 Nov 05:25:01 05:30:26 73° 247° (WSW) 05:35:48 145.827
MOZHAYETS 4 27 Nov 05:29:11 05:32:54 24° 264° (W) 05:36:40
JAS-2 27 Nov 05:31:29 05:38:22 77° 102° (ESE) 05:44:22 435.910
CUTE-I 27 Nov 05:33:27 05:36:52 17° 94° (E) 05:40:16 437.470
CUBESAT XI-V 27 Nov 05:36:44 05:40:28 24° 70° (ENE) 05:44:13 437.345
AIST 2 27 Nov 05:40:52 05:45:07 58° 60° (ENE) 05:49:16 435.215
O/OREOS (USA 219) 27 Nov 05:49:54 05:54:23 77° 289° (WNW) 05:58:52 437.305
PRISM 27 Nov 06:14:57 06:18:50 37° 261° (W) 06:22:47 437.425
BEESAT 3 27 Nov 06:24:04 06:26:51 17° 251° (WSW) 06:29:36 437.485
Cubesat XI-IV 27 Nov 06:30:48 06:36:07 70° 102° (ESE) 06:41:23 437.490
STRAND 1 27 Nov 06:34:36 06:39:44 81° 257° (WSW) 06:44:55 437.568
BEESAT 2 27 Nov 06:41:24 06:43:13 13° 252° (WSW) 06:45:01 435.950
AIST 1 27 Nov 06:42:09 06:46:24 50° 81° (E) 06:50:35
ISS 27 Nov 06:49:07 06:52:17 46° 227° (SW) 06:55:28 145.825
CUTE-I 27 Nov 07:12:03 07:17:07 47° 288° (WNW) 07:22:09 437.470
CUBESAT XI-V 27 Nov 07:13:43 07:17:44 28° 264° (W) 07:21:47 437.345
AO-7 27 Nov 07:13:45 07:15:13 11° 309° (NW) 07:16:41 29.400- 29.500
JAS-2 27 Nov 07:18:41 07:22:22 15° 301° (WNW) 07:25:51 435.910
GONETS M04 27 Nov 07:59:02 08:07:37 61° 91° (E) 08:16:15
Cubesat XI-IV 27 Nov 08:13:25 08:15:32 12° 297° (WNW) 08:17:39 437.490
